Time,TemperatureF,DewpointF,PressureIn,WindDirection,WindDirectionDegrees,WindSpeedMPH,WindSpeedGustMPH,Humidity,HourlyPrecipIn,Conditions,Clouds,dailyrainin,SoftwareType,DateUTC
2013-07-25 00:02:00,66.0,58.0,-100.00,SSE,165,5.0,6.0,76,-99.99,,,-99.99,,2013-07-25 05:02:00,
2013-07-25 00:12:00,66.0,58.0,-100.00,SSE,165,5.0,6.0,76,-99.99,,,-99.99,,2013-07-25 05:12:00,
2013-07-25 00:22:00,66.0,58.0,-100.00,South,180,6.0,6.0,77,-99.99,,,-99.99,,2013-07-25 05:22:00,
2013-07-25 00:32:00,66.0,58.0,-100.00,South,190,6.0,7.0,77,-99.99,,,-99.99,,2013-07-25 05:32:00,
2013-07-25 00:43:00,66.0,58.0,-100.00,South,185,4.0,5.0,76,-99.99,,,-99.99,,2013-07-25 05:43:00,
2013-07-25 01:02:00,65.0,58.0,-100.00,South,190,2.0,3.0,77,-99.99,,,-99.99,,2013-07-25 06:02:00,
2013-07-25 01:12:00,65.0,58.0,-100.00,SSW,200,2.0,2.0,78,-99.99,,,-99.99,,2013-07-25 06:12:00,
2013-07-25 01:22:00,65.0,58.0,-100.00,SSW,200,2.0,2.0,78,-99.99,,,-99.99,,2013-07-25 06:22:00,
2013-07-25 01:32:00,64.0,58.0,-100.00,South,190,4.0,4.0,80,-99.99,,,-99.99,,2013-07-25 06:32:00,
2013-07-25 01:42:00,64.0,59.0,-100.00,South,190,2.0,2.0,82,-99.99,,,-99.99,,2013-07-25 06:42:00,
2013-07-25 01:52:00,64.0,59.0,-100.00,SW,220,0.0,1.0,82,-99.99,,,-99.99,,2013-07-25 06:52:00,
2013-07-25 02:02:00,64.0,59.0,-100.00,South,175,1.0,1.0,82,-99.99,,,-99.99,,2013-07-25 07:02:00,
2013-07-25 02:12:00,64.0,58.0,-100.00,SSW,205,1.0,2.0,83,-99.99,,,-99.99,,2013-07-25 07:12:00,
2013-07-25 02:22:00,64.0,59.0,-100.00,East,100,0.0,0.0,83,-99.99,,,-99.99,,2013-07-25 07:22:00,
2013-07-25 02:33:00,64.0,59.0,-100.00,ENE,75,0.0,0.0,83,-99.99,,,-99.99,,2013-07-25 07:33:00,
2013-07-25 02:43:00,64.0,59.0,-100.00,ENE,75,0.0,0.0,83,-99.99,,,-99.99,,2013-07-25 07:43:00,
2013-07-25 02:53:00,64.0,59.0,-100.00,ENE,75,0.0,0.0,83,-99.99,,,-99.99,,2013-07-25 07:53:00,
2013-07-25 03:02:00,63.0,59.0,-100.00,SW,235,2.0,2.0,85,-99.99,,,-99.99,,2013-07-25 08:02:00,
2013-07-25 03:12:00,63.0,59.0,-100.00,SSE,150,0.0,0.0,86,-99.99,,,-99.99,,2013-07-25 08:12:00,
2013-07-25 03:22:00,63.0,59.0,-100.00,SE,125,0.0,1.0,86,-99.99,,,-99.99,,2013-07-25 08:22:00,
2013-07-25 03:32:00,64.0,59.0,-100.00,SW,215,1.0,1.0,86,-99.99,,,-99.99,,2013-07-25 08:32:00,
2013-07-25 03:44:00,63.0,59.0,-100.00,West,280,2.0,2.0,85,-99.99,,,-99.99,,2013-07-25 08:44:00,
2013-07-25 03:52:00,62.0,58.0,-100.00,West,265,0.0,0.0,86,-99.99,,,-99.99,,2013-07-25 08:52:00,
2013-07-25 04:02:00,62.0,57.0,-100.00,SW,230,0.0,1.0,86,-99.99,,,-99.99,,2013-07-25 09:02:00,
2013-07-25 04:12:00,62.0,57.0,-100.00,SW,230,0.0,1.0,86,-99.99,,,-99.99,,2013-07-25 09:12:00,
2013-07-25 04:22:00,62.0,58.0,-100.00,SW,235,2.0,2.0,88,-99.99,,,-99.99,,2013-07-25 09:22:00,
2013-07-25 04:33:00,62.0,58.0,-100.00,SW,235,2.0,2.0,88,-99.99,,,-99.99,,2013-07-25 09:33:00,
2013-07-25 04:43:00,62.0,58.0,-100.00,WSW,255,0.0,0.0,88,-99.99,,,-99.99,,2013-07-25 09:43:00,
2013-07-25 05:02:00,62.0,59.0,-100.00,SW,235,1.0,1.0,88,-99.99,,,-99.99,,2013-07-25 10:02:00,
2013-07-25 05:12:00,61.0,58.0,-100.00,SE,140,1.0,1.0,88,-99.99,,,-99.99,,2013-07-25 10:12:00,
2013-07-25 05:22:00,61.0,58.0,-100.00,South,175,0.0,1.0,88,-99.99,,,-99.99,,2013-07-25 10:22:00,
2013-07-25 05:32:00,61.0,58.0,-100.00,SSE,165,1.0,1.0,89,-99.99,,,-99.99,,2013-07-25 10:32:00,
2013-07-25 05:42:00,61.0,58.0,-100.00,SE,140,1.0,1.0,89,-99.99,,,-99.99,,2013-07-25 10:42:00,
2013-07-25 05:53:00,61.0,58.0,-100.00,SSW,200,2.0,3.0,90,-99.99,,,-99.99,,2013-07-25 10:53:00,
2013-07-25 06:02:00,61.0,58.0,-100.00,SSW,200,2.0,3.0,90,-99.99,,,-99.99,,2013-07-25 11:02:00,
2013-07-25 06:12:00,61.0,58.0,-100.00,SSW,200,2.0,3.0,90,-99.99,,,-99.99,,2013-07-25 11:12:00,
2013-07-25 06:22:00,62.0,59.0,-100.00,SW,230,2.0,3.0,90,-99.99,,,-99.99,,2013-07-25 11:22:00,
2013-07-25 06:43:00,63.0,59.0,-100.00,West,260,2.0,4.0,89,-99.99,,,-99.99,,2013-07-25 11:43:00,
2013-07-25 07:02:00,64.0,60.0,-100.00,SW,235,1.0,1.0,86,-99.99,,,-99.99,,2013-07-25 12:02:00,
2013-07-25 07:12:00,64.0,59.0,-100.00,SSW,205,3.0,4.0,84,-99.99,,,-99.99,,2013-07-25 12:12:00,
2013-07-25 07:22:00,64.0,59.0,-100.00,SSW,205,3.0,4.0,84,-99.99,,,-99.99,,2013-07-25 12:22:00,
2013-07-25 07:32:00,64.0,59.0,-100.00,SSW,205,3.0,4.0,84,-99.99,,,-99.99,,2013-07-25 12:32:00,
2013-07-25 07:45:00,64.0,59.0,-100.00,SSW,205,3.0,4.0,84,-99.99,,,-99.99,,2013-07-25 12:45:00,
2013-07-25 07:53:00,68.0,59.0,-100.00,South,190,2.0,3.0,73,-99.99,,,-99.99,,2013-07-25 12:53:00,
2013-07-25 08:12:00,68.0,58.0,-100.00,SW,225,2.0,2.0,70,-99.99,,,-99.99,,2013-07-25 13:12:00,
2013-07-25 08:22:00,68.0,58.0,-100.00,SSW,195,3.0,6.0,69,-99.99,,,-99.99,,2013-07-25 13:22:00,
2013-07-25 08:43:00,70.0,58.0,-100.00,SSW,205,5.0,6.0,67,-99.99,,,-99.99,,2013-07-25 13:43:00,
2013-07-25 08:52:00,70.0,58.0,-100.00,SSW,205,5.0,6.0,67,-99.99,,,-99.99,,2013-07-25 13:52:00,
2013-07-25 09:02:00,72.0,58.0,-100.00,WSW,245,4.0,6.0,63,-99.99,,,-99.99,,2013-07-25 14:02:00,
2013-07-25 09:12:00,72.0,58.0,-100.00,SW,220,5.0,6.0,62,-99.99,,,-99.99,,2013-07-25 14:12:00,
2013-07-25 09:33:00,73.0,58.0,-100.00,SW,235,6.0,8.0,60,-99.99,,,-99.99,,2013-07-25 14:33:00,
2013-07-25 09:43:00,73.0,58.0,-100.00,SW,235,6.0,8.0,60,-99.99,,,-99.99,,2013-07-25 14:43:00,
2013-07-25 09:53:00,75.0,57.0,-100.00,SW,220,8.0,10.0,54,-99.99,,,-99.99,,2013-07-25 14:53:00,
2013-07-25 10:02:00,76.0,58.0,-100.00,SW,230,7.0,11.0,54,-99.99,,,-99.99,,2013-07-25 15:02:00,
2013-07-25 10:12:00,78.0,60.0,-100.00,SSW,200,4.0,5.0,53,-99.99,,,-99.99,,2013-07-25 15:12:00,
2013-07-25 10:22:00,78.0,60.0,-100.00,SSW,200,4.0,5.0,53,-99.99,,,-99.99,,2013-07-25 15:22:00,
2013-07-25 10:31:00,80.0,58.0,-100.00,SW,220,4.0,6.0,48,-99.99,,,-99.99,,2013-07-25 15:31:00,
2013-07-25 10:32:00,79.0,59.0,-100.00,SW,215,6.0,7.0,50,-99.99,,,-99.99,,2013-07-25 15:32:00,
2013-07-25 10:44:00,79.0,58.0,-100.00,SW,235,9.0,9.0,49,-99.99,,,-99.99,,2013-07-25 15:44:00,
2013-07-25 11:02:00,80.0,58.0,-100.00,SW,220,4.0,6.0,48,-99.99,,,-99.99,,2013-07-25 16:02:00,
2013-07-25 11:22:00,80.0,58.0,-100.00,SW,220,4.0,6.0,48,-99.99,,,-99.99,,2013-07-25 16:22:00,
2013-07-25 12:03:00,81.0,57.0,-100.00,SSW,195,7.0,8.0,43,-99.99,,,-99.99,,2013-07-25 17:03:00,
2013-07-25 13:02:00,81.0,57.0,-100.00,South,180,6.0,9.0,44,-99.99,,,-99.99,,2013-07-25 18:02:00,
2013-07-25 13:12:00,82.0,57.0,-100.00,SSW,195,6.0,7.0,43,-99.99,,,-99.99,,2013-07-25 18:12:00,
2013-07-25 13:22:00,82.0,58.0,-100.00,SSE,165,5.0,6.0,45,-99.99,,,-99.99,,2013-07-25 18:22:00,
2013-07-25 13:33:00,82.0,58.0,-100.00,SSE,165,5.0,6.0,45,-99.99,,,-99.99,,2013-07-25 18:33:00,
2013-07-25 13:43:00,82.0,58.0,-100.00,SSE,165,5.0,6.0,45,-99.99,,,-99.99,,2013-07-25 18:43:00,
2013-07-25 13:52:00,82.0,58.0,-100.00,SSE,165,5.0,6.0,45,-99.99,,,-99.99,,2013-07-25 18:52:00,
2013-07-25 14:33:00,84.0,57.0,-100.00,SSW,195,11.0,12.0,40,-99.99,,,-99.99,,2013-07-25 19:33:00,
2013-07-25 15:02:00,84.0,56.0,-100.00,SSW,195,12.0,14.0,39,-99.99,,,-99.99,,2013-07-25 20:02:00,
2013-07-25 15:12:00,84.0,56.0,-100.00,SSW,195,12.0,14.0,39,-99.99,,,-99.99,,2013-07-25 20:12:00,
2013-07-25 16:22:00,82.0,58.0,-100.00,South,185,14.0,16.0,44,-99.99,,,-99.99,,2013-07-25 21:22:00,
2013-07-25 16:33:00,83.0,59.0,-100.00,SW,225,12.0,14.0,45,-99.99,,,-99.99,,2013-07-25 21:33:00,
2013-07-25 16:44:00,83.0,59.0,-100.00,SW,225,12.0,14.0,45,-99.99,,,-99.99,,2013-07-25 21:44:00,
2013-07-25 17:02:00,82.0,59.0,-100.00,South,190,12.0,16.0,46,-99.99,,,-99.99,,2013-07-25 22:02:00,
2013-07-25 17:12:00,82.0,59.0,-100.00,SSW,195,10.0,12.0,47,-99.99,,,-99.99,,2013-07-25 22:12:00,
2013-07-25 17:22:00,81.0,58.0,-100.00,SSW,200,11.0,15.0,46,-99.99,,,-99.99,,2013-07-25 22:22:00,
2013-07-25 17:32:00,81.0,59.0,-100.00,South,185,14.0,17.0,47,-99.99,,,-99.99,,2013-07-25 22:32:00,
2013-07-25 17:43:00,81.0,59.0,-100.00,South,185,14.0,17.0,47,-99.99,,,-99.99,,2013-07-25 22:43:00,
2013-07-25 18:02:00,81.0,61.0,-100.00,South,180,12.0,14.0,50,-99.99,,,-99.99,,2013-07-25 23:02:00,
2013-07-25 18:12:00,81.0,60.0,-100.00,South,185,8.0,9.0,50,-99.99,,,-99.99,,2013-07-25 23:12:00,
2013-07-25 18:22:00,81.0,61.0,-100.00,SSW,195,10.0,12.0,51,-99.99,,,-99.99,,2013-07-25 23:22:00,
2013-07-25 18:32:00,82.0,60.0,-100.00,SSW,195,15.0,18.0,48,-99.99,,,-99.99,,2013-07-25 23:32:00,
2013-07-25 18:43:00,82.0,60.0,-100.00,SSW,195,15.0,18.0,48,-99.99,,,-99.99,,2013-07-25 23:43:00,
2013-07-25 18:52:00,81.0,59.0,-100.00,SSW,210,9.0,11.0,48,-99.99,,,-99.99,,2013-07-25 23:52:00,
2013-07-25 19:02:00,81.0,59.0,-100.00,SSW,210,9.0,11.0,48,-99.99,,,-99.99,,2013-07-26 00:02:00,
2013-07-25 19:12:00,79.0,59.0,-100.00,SSW,205,10.0,13.0,51,-99.99,,,-99.99,,2013-07-26 00:12:00,
2013-07-25 19:22:00,79.0,59.0,-100.00,SSW,205,10.0,13.0,51,-99.99,,,-99.99,,2013-07-26 00:22:00,
2013-07-25 19:33:00,79.0,60.0,-100.00,SW,220,11.0,14.0,52,-99.99,,,-99.99,,2013-07-26 00:33:00,
2013-07-25 19:43:00,79.0,60.0,-100.00,SW,220,11.0,14.0,52,-99.99,,,-99.99,,2013-07-26 00:43:00,
2013-07-25 19:52:00,79.0,60.0,-100.00,SW,220,11.0,14.0,52,-99.99,,,-99.99,,2013-07-26 00:52:00,
2013-07-25 20:02:00,78.0,61.0,-100.00,SW,230,12.0,16.0,56,-99.99,,,-99.99,,2013-07-26 01:02:00,
2013-07-25 20:12:00,77.0,61.0,-100.00,SSW,210,8.0,10.0,57,-99.99,,,-99.99,,2013-07-26 01:12:00,
2013-07-25 20:22:00,77.0,61.0,-100.00,SW,215,7.0,12.0,58,-99.99,,,-99.99,,2013-07-26 01:22:00,
2013-07-25 20:32:00,77.0,61.0,-100.00,SW,215,7.0,12.0,58,-99.99,,,-99.99,,2013-07-26 01:32:00,
2013-07-25 20:43:00,77.0,61.0,-100.00,SW,220,6.0,7.0,59,-99.99,,,-99.99,,2013-07-26 01:43:00,
2013-07-25 21:02:00,77.0,61.0,-100.00,SW,220,6.0,7.0,59,-99.99,,,-99.99,,2013-07-26 02:02:00,
2013-07-25 21:12:00,77.0,61.0,-100.00,SW,220,6.0,7.0,59,-99.99,,,-99.99,,2013-07-26 02:12:00,
2013-07-25 21:22:00,75.0,61.0,-100.00,SSW,200,7.0,9.0,61,-99.99,,,-99.99,,2013-07-26 02:22:00,
2013-07-25 21:32:00,75.0,61.0,-100.00,SSW,200,7.0,9.0,61,-99.99,,,-99.99,,2013-07-26 02:32:00,
2013-07-25 21:43:00,75.0,62.0,-100.00,SW,215,6.0,8.0,64,-99.99,,,-99.99,,2013-07-26 02:43:00,
2013-07-25 22:02:00,74.0,62.0,-100.00,South,175,4.0,4.0,66,-99.99,,,-99.99,,2013-07-26 03:02:00,
2013-07-25 22:12:00,74.0,63.0,-100.00,South,185,6.0,7.0,68,-99.99,,,-99.99,,2013-07-26 03:12:00,
2013-07-25 22:22:00,74.0,62.0,-100.00,South,190,4.0,6.0,68,-99.99,,,-99.99,,2013-07-26 03:22:00,
2013-07-25 22:32:00,74.0,62.0,-100.00,South,190,4.0,6.0,68,-99.99,,,-99.99,,2013-07-26 03:32:00,
2013-07-25 22:43:00,73.0,63.0,-100.00,SW,225,2.0,4.0,70,-99.99,,,-99.99,,2013-07-26 03:43:00,
2013-07-25 22:53:00,73.0,63.0,-100.00,SW,225,3.0,4.0,72,-99.99,,,-99.99,,2013-07-26 03:53:00,
2013-07-25 23:02:00,73.0,63.0,-100.00,SW,225,3.0,4.0,72,-99.99,,,-99.99,,2013-07-26 04:02:00,
2013-07-25 23:12:00,73.0,63.0,-100.00,WNW,290,2.0,2.0,72,-99.99,,,-99.99,,2013-07-26 04:12:00,
2013-07-25 23:22:00,73.0,63.0,-100.00,West,260,3.0,4.0,72,-99.99,,,-99.99,,2013-07-26 04:22:00,
2013-07-25 23:32:00,73.0,63.0,-100.00,SW,235,4.0,4.0,72,-99.99,,,-99.99,,2013-07-26 04:32:00,
2013-07-25 23:42:00,73.0,63.0,-100.00,SW,235,3.0,4.0,72,-99.99,,,-99.99,,2013-07-26 04:42:00,
2013-07-25 23:53:00,73.0,63.0,-100.00,WSW,245,3.0,5.0,73,-99.99,,,-99.99,,2013-07-26 04:53:00,